Regional Weather Roundup
Issued by NWS Upton, NY

Current Version | Previous Version | Graphics & Text | Print | Product List | Glossary On
Versions: 1 2 3 4 5 6 7 8 9 10 11 12 13 14 15 16 17 18 19 20 21 22 23 24 25 26 27 28 29 30 31 32 33 34 35 36 37 38 39 40 41 42 43 44 45 46 47 48 49 50
000
ASUS41 KOKX 310304
RWROKX

REGIONAL WEATHER ROUNDUP
NATIONAL WEATHER SERVICE NEW YORK NY
1100 PM EDT SUN AUG 30 2015

NOTE: "FAIR" INDICATES FEW OR NO CLOUDS BELOW 12,000 FEET WITH NO
SIGNIFICANT WEATHER AND/OR OBSTRUCTIONS TO VISIBILITY.

NYZ071-072-176-178-NJZ106-104-310400-
NEW YORK CITY METRO AREA


CITY           SKY/WX    TMP DP  RH WIND       PRES   REMARKS
CENTRAL PARK   CLOUDY    75  70  84 W5        30.07S
LAGUARDIA APRT CLOUDY    78  69  73 SW6       30.03R
KENNEDY INTL   CLOUDY    79  68  69 SW10      30.05S
NEWARK/LIBERTY MOCLDY    82  66  58 SW8       30.03S
BRNX BOT. GARD   N/A     81  64  57 SW8       30.03S
TETERBORO      MOCLDY    83  63  50 MISG      30.02S
$$

NYZ177-179-078>081-310400-
LONG ISLAND NEW YORK

CITY           SKY/WX    TMP DP  RH WIND       PRES   REMARKS
FARMINGDALE    CLOUDY    79  68  69 W8        30.05R
ISLIP          CLOUDY    77  69  76 SW13      30.02F
SHIRLEY        MOCLDY    77  70  79 SW10      30.05S
WESTHAMPTON    PTCLDY    75  70  84 SW13      30.06S
MONTAUK POINT    N/A     75  70  84 VRB6      30.05F
$$

NYZ052-065-067-310400-
HUDSON VALLEY

CITY           SKY/WX    TMP DP  RH WIND       PRES   REMARKS
WHITE PLAINS   PTCLDY    71  68  90 CALM      30.04S
NEWBURGH       PTCLDY    72  68  88 CALM      30.05
MONTGOMERY     PTCLDY    68  66  93 CALM      30.04S
POUGHKEEPSIE   CLEAR     70  68  93 CALM      30.02S FOG
ALBANY         MOCLDY    72  65  78 CALM      30.02F
$$

NJZ001-105-106-008-010-013-015-019>022-104-310400-
NEW JERSEY

CITY           SKY/WX    TMP DP  RH WIND       PRES   REMARKS
NEWARK/LIBERTY MOCLDY    82  66  58 SW8       30.03S
TETERBORO      MOCLDY    83  63  50 MISG      30.02S
CALDWELL       MOCLDY    79  65  62 CALM      30.04S
MORRISTOWN     MOCLDY    79  63  57 SW7       30.04F
SOMERVILLE     CLOUDY    73  67  81 CALM      30.03S
SUSSEX         FOG       70  68  93 CALM      30.05S VSB 1/4
ANDOVER          N/A     68  67  96 CALM      30.06F
TRENTON        CLOUDY    79  64  60 CALM      30.06R
MILLVILLE      CLOUDY    76  66  71 SW3       30.09S
ATLANTIC CITY  CLOUDY    76  66  71 SW8       30.08S
WRIGHTSTOWN    CLOUDY    74  68  79 SW6       30.04S
TOMS RIVER     CLOUDY    73  64  73 SW7       30.07S
BELMAR         CLOUDY    75  63  64 SW6       30.06S
$$

PAZ047>061-062-071-310400-
EASTERN PENNSYLVANIA

CITY           SKY/WX    TMP DP  RH WIND       PRES   REMARKS
PHILADELPHIA   CLOUDY    81  65  58 SW10      30.07S
ALLENTOWN      MOCLDY    73  67  81 CALM      30.06S
SCRANTON       CLOUDY    74  64  71 CALM      30.07F
$$

CTZ002-004>006-009-010-012-RIZ004-006-007-MAZ004-011-015-310400-
SOUTHERN NEW ENGLAND
 IN CT

CITY           SKY/WX    TMP DP  RH WIND       PRES   REMARKS
BRADLEY INTL   PTCLDY    71  67  87 S3        30.02S
HARTFORD       MOCLDY    73  69  87 CALM      30.02S
DANBURY        CLOUDY    74  66  76 S3        30.05F
WTRBRY/OXFORD  CLOUDY    73  64  73 CALM      30.06F
BRIDGEPORT     CLOUDY    77  71  82 S5        30.03S
MERIDEN        CLEAR     72  67  84 CALM      30.03S
NEW HAVEN      CLOUDY    77  70  79 VRB3      30.03S
CHESTER        NOT AVBL
GROTON         CLOUDY    73  71  93 CALM      30.03S
WILLIMANTIC    PTCLDY    71  69  93 CALM      30.03F FOG

 IN RI

CITY           SKY/WX    TMP DP  RH WIND       PRES   REMARKS
PROVIDENCE     CLOUDY    75  67  76 SW7       30.03F
BLOCK ISLAND   MOCLDY    73  72  94 SW12      30.04F
WESTERLY       MOCLDY    74  69  85 SW5       30.04F

 IN MA

CITY           SKY/WX    TMP DP  RH WIND       PRES   REMARKS
BOSTON         CLEAR     78  63  59 SW8       30.01S
WORCESTER      PTCLDY    68  63  84 SW6       30.06S
WESTFIELD      CLEAR     70  66  87 CALM      30.02F
PROVINCETOWN   CLOUDY    72  63  73 SW9       30.02S
NANTUCKET      PTCLDY    71  69  93 SW10      30.04F
$$

ANZ330-335-338-340-345-350-353-355-310400-
COASTAL MARINE OBSERVATIONS


STATION/POSITION TIME  SKY/WX   TEMP    WIND        PRES    VSBY  WAVE
                                AIR SEA DIR/SP/G                  HT/PER
                 (UTC)          (F)     (DEG/KT/KT) (MB)    (MI)  (FT/S)
NY HARB ENTRANCE 0150            77 76  210/ 16/ 17 1016.7          4/10
4S FIRE IS       NOT AVBL
20S FIRE ISLAND  0150            76 75  220/ 17/ 23 1017.0          4/ 5
GREAT SOUTH BAY  0230            77 78  240/ 16/ 17   N/A
23SW MTP         0250            76 73  230/ 16/ 19 1016.7          3/10
HUDSON CANYON    NOT AVBL
KINGS POINT      NOT AVBL
EXECUTION ROCKS  0200            79     180/  8/ 10   N/A
CENTRAL LI SOUND NOT AVBL
EASTERN LI SOUND 0200            73 71  240/  6/  8   N/A
ROBBINS REEF     NOT AVBL
$$


>>>>>>>>>>>>>>>>>>>>>>>>>>>> KEY <<<<<<<<<<<<<<<<<<<<<<<<<<<
>                                                          <
>     SKY/WX - SKY CONDITION/PRESENT WEATHER               <
>     TMP    - TEMPERATURE IN FAHRENHEIT                   <
>     DP     - DEWPOINT IN FAHRENHEIT                      <
>     RH     - RELATIVE HUMIDITY IN PERCENT                <
>     WIND   - DIRECTION AND SPEED IN MPH                  <
>     PRES   - MEAN SEA LEVEL PRESSURE IN INCHES OF HG     <
>     WCI    - WIND CHILL INDEX                            <
>     VSB    - VISIBILITY IN MILES                         <
>     HX     - HEAT INDEX                                  <
>     TC     - TEMPERATURE IN CELSIUS                      <
>     VRB    - VARIABLE WIND DIRECTION                     <
>                                                          <
>>>>>>>>>>>>>>>>>>>>>>>>>>>> KEY <<<<<<<<<<<<<<<<<<<<<<<<<<<





USA.gov is the U.S. government's official web portal to all federal, state and local government web resources and services.